Weather History for KCCR - August, 2013

Change the Weather History Date:

Tuesday, August 13, 2013

  Actual Average Record
Temperature  
Mean Temperature 74 °F 72 °F  
Max Temperature 93 °F 87 °F 100 °F (1996)
Min Temperature 54 °F 58 °F 54 °F (2001)
Degree Days  
Heating Degree Days 0    
Month to date heating degree days 2  
Since 1 June heating degree days 17  
Since 1 July heating degree days 6  
Cooling Degree Days 9    
Month to date cooling degree days 51  
Year to date cooling degree days 519  
Since 1 June cooling degree days 427  
Growing Degree Days 23 (Base 50)    
Moisture  
Dew Point 49 °F    
Average Humidity 51    
Maximum Humidity 86    
Minimum Humidity 16    
Precipitation  
Precipitation 0.00 in - 0.00 in (2015)
Month to date precipitation 0.00  
Year to date precipitation 2.06  
Since 1 July precipitation 0.00  
Sea Level Pressure  
Sea Level Pressure 29.90 in    
Wind  
Wind Speed 6 mph (West)    
Max Wind Speed 18 mph    
Max Gust Speed 26 mph    
Visibility 10 miles    
Events      
T = Trace of Precipitation, MM = Missing Value Source: NWS Daily Summary

Daily Weather History Graph

Daily Weather History Graph

Search for Another Location

Airport or City:

Trip Planner

Search our weather history database for the weather conditions in past years. The results will help you decide how hot, cold, wet, or windy it might be!

Date:

Astronomy

Aug. 13, 2013 Rise Set
Actual Time 6:21 AM PDT 8:03 PM PDT
Civil Twilight 5:53 AM PDT 8:31 PM PDT
Nautical Twilight 5:19 AM PDT 9:05 PM PDT
Astronomical Twilight 4:43 AM PDT 9:41 PM PDT
Moon 1:14 PM PDT (8/13) 11:50 PM PDT (8/13)
Length of Visible Light 14h 37m
Length of Day
13h 41m
Waxing Crescent, 43% of the Moon is Illuminated
Aug 13
Waxing Crescent
Aug 14
First Quarter
Aug 20
Full
Aug 28
Last Quarter
Sep 5
New

Hourly Weather History & Observations

Time (PDT) Temp. Dew Point Humidity Pressure Visibility Wind Dir Wind Speed Gust Speed Precip Events Conditions
12:53 AM 60.1 °F 50.0 °F 69% 29.92 in 10.0 mi Variable 3.5 mph - N/A   Clear
1:53 AM 57.0 °F 52.0 °F 83% 29.91 in 10.0 mi NW 3.5 mph - N/A   Clear
2:53 AM 55.9 °F 50.0 °F 80% 29.91 in 10.0 mi Calm Calm - N/A   Clear
3:53 AM 55.9 °F 50.0 °F 80% 29.92 in 10.0 mi Calm Calm - N/A   Clear
4:53 AM 55.9 °F 51.1 °F 84% 29.91 in 10.0 mi Calm Calm - N/A   Clear
5:53 AM 55.0 °F 50.0 °F 83% 29.92 in 10.0 mi Calm Calm - N/A   Clear
6:53 AM 55.0 °F 51.1 °F 86% 29.93 in 10.0 mi Calm Calm - N/A   Clear
7:53 AM 59.0 °F 52.0 °F 78% 29.94 in 10.0 mi Calm Calm - N/A   Clear
8:53 AM 64.0 °F 54.0 °F 70% 29.95 in 10.0 mi Variable 3.5 mph - N/A   Clear
9:53 AM 68.0 °F 54.0 °F 61% 29.94 in 10.0 mi Variable 3.5 mph - N/A   Clear
10:53 AM 71.1 °F 55.0 °F 57% 29.94 in 10.0 mi NNW 8.1 mph - N/A   Clear
11:53 AM 77.0 °F 54.0 °F 45% 29.93 in 10.0 mi WNW 5.8 mph - N/A   Clear
12:53 PM 82.0 °F 50.0 °F 33% 29.91 in 10.0 mi Variable 3.5 mph - N/A   Clear
1:53 PM 88.0 °F 46.9 °F 24% 29.89 in 10.0 mi Variable 6.9 mph - N/A   Clear
2:53 PM 89.1 °F 44.1 °F 21% 29.87 in 10.0 mi NW 5.8 mph - N/A   Clear
3:53 PM 91.0 °F 42.1 °F 18% 29.85 in 10.0 mi NW 11.5 mph - N/A   Clear
4:53 PM 91.9 °F 39.0 °F 16% 29.84 in 10.0 mi WNW 16.1 mph 20.7 mph N/A   Clear
5:53 PM 89.1 °F 50.0 °F 26% 29.84 in 10.0 mi WNW 12.7 mph 21.9 mph N/A   Clear
6:53 PM 82.9 °F 48.0 °F 29% 29.85 in 10.0 mi West 13.8 mph 18.4 mph N/A   Clear
7:53 PM 80.1 °F 45.0 °F 29% 29.85 in 10.0 mi SSW 6.9 mph 26.5 mph N/A   Clear
8:53 PM 75.9 °F 45.0 °F 33% 29.86 in 10.0 mi South 6.9 mph - N/A   Clear
9:53 PM 72.0 °F 48.0 °F 43% 29.87 in 10.0 mi SSW 5.8 mph - N/A   Clear
10:53 PM 66.9 °F 50.0 °F 54% 29.88 in 10.0 mi SSW 6.9 mph - N/A   Clear
11:53 PM 64.0 °F 51.1 °F 63% 29.89 in 10.0 mi SSW 10.4 mph - N/A   Clear